TimeEDT,TemperatureF,Dew PointF,Humidity,Sea Level PressureIn,VisibilityMPH,Wind Direction,Wind SpeedMPH,Gust SpeedMPH,PrecipitationIn,Events,Conditions,WindDirDegrees,DateUTC
12:53 AM,69.1,64.0,84,30.07,10.0,North,8.1,-,N/A,,Scattered Clouds,360,2013-04-07 04:53:00
1:53 AM,69.1,66.0,90,30.04,10.0,North,5.8,-,N/A,,Partly Cloudy,10,2013-04-07 05:53:00
2:35 AM,69.8,66.2,88,30.03,10.0,North,4.6,-,N/A,,Mostly Cloudy,10,2013-04-07 06:35:00
2:53 AM,71.1,66.0,84,30.02,10.0,NNE,4.6,-,N/A,,Mostly Cloudy,20,2013-04-07 06:53:00
3:53 AM,72.0,66.0,81,29.99,10.0,ENE,9.2,-,N/A,,Clear,70,2013-04-07 07:53:00
4:53 AM,72.0,66.0,81,30.00,10.0,ENE,9.2,-,N/A,,Overcast,70,2013-04-07 08:53:00
5:03 AM,71.6,66.2,83,30.00,10.0,ENE,9.2,-,N/A,,Overcast,70,2013-04-07 09:03:00
5:49 AM,71.6,66.2,83,30.00,10.0,ENE,6.9,-,N/A,,Scattered Clouds,60,2013-04-07 09:49:00
5:53 AM,72.0,66.9,84,30.00,10.0,ENE,6.9,-,N/A,,Partly Cloudy,70,2013-04-07 09:53:00
5:55 AM,71.6,66.2,83,30.01,10.0,ENE,6.9,-,N/A,,Partly Cloudy,70,2013-04-07 09:55:00
6:53 AM,72.0,66.0,81,30.02,10.0,East,10.4,-,N/A,,Partly Cloudy,90,2013-04-07 10:53:00
7:53 AM,73.0,66.0,79,30.03,10.0,East,12.7,-,N/A,,Scattered Clouds,100,2013-04-07 11:53:00
8:53 AM,75.9,66.0,71,30.06,10.0,East,13.8,-,N/A,,Scattered Clouds,90,2013-04-07 12:53:00
9:53 AM,78.1,66.9,68,30.07,10.0,East,13.8,-,0.01,,Scattered Clouds,80,2013-04-07 13:53:00
10:53 AM,79.0,66.9,66,30.09,10.0,East,15.0,-,N/A,,Scattered Clouds,80,2013-04-07 14:53:00
11:53 AM,81.0,66.9,62,30.10,10.0,East,13.8,-,N/A,,Scattered Clouds,100,2013-04-07 15:53:00
12:53 PM,82.0,66.9,60,30.09,10.0,East,16.1,-,N/A,,Scattered Clouds,100,2013-04-07 16:53:00
1:53 PM,80.1,66.9,64,30.07,10.0,East,17.3,24.2,N/A,,Scattered Clouds,100,2013-04-07 17:53:00
2:53 PM,82.0,68.0,62,30.06,10.0,East,16.1,-,N/A,,Scattered Clouds,100,2013-04-07 18:53:00
3:53 PM,79.0,66.0,64,30.05,10.0,East,18.4,25.3,N/A,,Mostly Cloudy,100,2013-04-07 19:53:00
4:53 PM,80.1,66.0,62,30.04,10.0,East,18.4,-,N/A,,Mostly Cloudy,90,2013-04-07 20:53:00
5:53 PM,78.1,66.0,66,30.04,10.0,East,17.3,24.2,N/A,,Mostly Cloudy,90,2013-04-07 21:53:00
6:53 PM,75.9,64.9,69,30.03,10.0,East,13.8,-,N/A,,Scattered Clouds,100,2013-04-07 22:53:00
7:53 PM,75.0,64.9,71,30.03,10.0,East,17.3,-,N/A,,Scattered Clouds,90,2013-04-07 23:53:00
8:53 PM,75.0,64.9,71,30.05,10.0,East,15.0,-,N/A,,Scattered Clouds,100,2013-04-08 00:53:00
9:53 PM,73.9,64.9,73,30.07,10.0,East,15.0,-,N/A,,Scattered Clouds,90,2013-04-08 01:53:00
10:53 PM,73.9,64.9,73,30.08,10.0,East,15.0,-,N/A,,Partly Cloudy,90,2013-04-08 02:53:00
11:53 PM,73.9,66.0,76,30.08,10.0,East,12.7,-,N/A,,Scattered Clouds,90,2013-04-08 03:53:00